Hourly Data Report for September 27, 2017

All times are specified in Local Standard Time (LST). Add 1 hour to adjust for Daylight Saving Time where and when it is observed.

DOAKTOWN AUTO RCS
NEW BRUNSWICK

46°35'06.090" N
66°00'35.071" W
43.00 m
8101201
71038
ADN

Download Data

Hourly Data (September 2017)
Hourly Data Report for September 27, 2017
Temp Definition
°C
Dew Point Temp Definition
°C
Rel Hum Definition
%
Wind Dir Definition
10's deg

Wind Spd Definition
km/h
Visibility Definition
km
Stn Press Definition
kPa
Hmdx Definition


Wind Chill Definition


Weather Definition


TIME
00:00 13.3 10.1 81 4 8   101.24     LegendNANA
01:00 13.4 10.2 81 4 9   101.24     LegendNANA
02:00 12.9 10.4 85 5 8   101.20     LegendNANA
03:00 13.0 10.4 84 2 8   101.13     LegendNANA
04:00 12.6 10.5 87 6 8   101.12     LegendNANA
05:00 12.5 10.3 86 4 7   101.04     LegendNANA
06:00 12.2 10.4 89 6 6   100.97     LegendNANA
07:00 11.9 10.9 94 5 2   100.94     LegendNANA
08:00 12.2 11.3 94 2 4   100.89     LegendNANA
09:00 12.6 11.6 94 2 2   100.84     LegendNANA
10:00 13.4 12.4 94 35 2   100.77     LegendNANA
11:00 13.8 12.4 91 27 2   100.70     LegendNANA
12:00 14.5 13.2 92 22 2   100.57     LegendNANA
13:00 15.6 14.0 90 31 3   100.49     LegendNANA
14:00 15.9 14.5 92 24 4   100.40     LegendNANA
15:00 16.9 15.1 90   0   100.32     LegendNANA
16:00 17.6 15.4 87   0   100.22     LegendNANA
17:00 17.8 15.6 87 11 3   100.08     LegendNANA
18:00 17.3 15.6 90 11 2   100.06     LegendNANA
19:00 15.6 14.5 93   0   99.97     LegendNANA
20:00 16.4 15.8 96 28 2   99.87     LegendNANA
21:00 18.5 17.5 94 21 5   99.79     LegendNANA
22:00 19.4 17.3 88 22 10   99.81     LegendNANA
23:00 19.6 17.4 87 26 8   99.90     LegendNANA

Notes on Data Quality.

Legend

  • E = Estimated
  • M = Missing
  • NA = Not Available
  • ‡ = Partner data that is not subject to review by the National Climate Archives
Date modified: